User: anonymous   Login
Location: Vancouver
(49.2500°N, 123.1330°W)
Time: 21:01:23
(UTC-07:00)
Language:

CZ-2C R/B - Orbit

View from above orbital plane
View from above orbital plane
View from above satellite
View from above satellite

Ground track
Ground track

The orbit data is extracted from the following two-line orbital elements,

1 28480U 04046B   16118.96390036 +.00000024 +00000-0 +24514-4 0  9995
2 28480 098.1757 236.2013 0142240 010.5777 097.5016 14.25586495595059
Epoch (UTC): 27 April 2016 23:08:00
Eccentricity: 0.0142240
inclination: 98.1757°
perigee height: 704 km
apogee height: 909 km
right ascension of ascending node: 236.2013°
argument of perigee: 10.5777°
revolutions per day: 14.25586495
mean anomaly at epoch: 97.5016°
orbit number at epoch: 59505

The dashed part of the orbit path shows where the satellite is in the earth's shadow,  

DLR